Yuma MCAS, AZ

10:52 PM MST on April 23, 2017 (GMT -0700)
Yuma Marine Corps Air Station

Weather History for KNYL - September, 2012

Change the Weather History Date:

Friday, September 14, 2012

  Actual Average Record
Temperature  
Mean Temperature 93 °F 90 °F  
Max Temperature 102 °F 102 °F 112 °F (2000)
Min Temperature 84 °F 78 °F 56 °F (1893)
Degree Days  
Heating Degree Days 0 0  
Month to date heating degree days 0 0  
Since 1 July heating degree days 0 0  
Cooling Degree Days 28 25  
Month to date cooling degree days 372 373  
Year to date cooling degree days 3928 3826  
Growing Degree Days 44 (Base 50)    
Moisture  
Dew Point 46 °F    
Average Humidity 26    
Maximum Humidity 43    
Minimum Humidity 8    
Precipitation  
Precipitation 0.00 in 0.02 in 0.56 in (1997)
Month to date precipitation 0.31 0.25  
Year to date precipitation 2.34 2.34  
Sea Level Pressure  
Sea Level Pressure 29.92 in    
Wind  
Wind Speed 14 mph (ENE)    
Max Wind Speed 30 mph    
Max Gust Speed 37 mph    
Visibility 10 miles    
Events      
T = Trace of Precipitation, MM = Missing Value Source: NWS Daily Summary

Daily Weather History Graph

Daily Weather History Graph

Search for Another Location

Airport or City:

Trip Planner

Search our weather history database for the weather conditions in past years. The results will help you decide how hot, cold, wet, or windy it might be!

Date:

Astronomy

Sep. 14, 2012 Rise Set
Actual Time 6:21 AM MST 6:45 PM MST
Civil Twilight 5:57 AM MST 7:09 PM MST
Nautical Twilight 5:28 AM MST 7:38 PM MST
Astronomical Twilight 4:58 AM MST 8:07 PM MST
Moon 4:53 AM MST (9/14) 5:43 PM MST (9/14)
Length of Visible Light 13h 12m
Length of Day
12h 23m
Waning Crescent, 2% of the Moon is Illuminated
Sep 14
Waning Crescent
Sep 15
New
Sep 22
First Quarter
Sep 29
Full
Oct 8
Last Quarter

Hourly Weather History & Observations

Time (MST) Temp. Heat Index Dew Point Humidity Pressure Visibility Wind Dir Wind Speed Gust Speed Precip Events Conditions
12:55 AM 89.1 °F 89.3 °F 62.1 °F 40% 29.88 in 10.0 mi NE 3.5 mph - N/A   Partly Cloudy
1:55 AM 88.0 °F 88.4 °F 62.1 °F 42% 29.89 in 10.0 mi East 10.4 mph - N/A   Clear
2:55 AM 88.0 °F 87.1 °F 59.0 °F 37% 29.88 in 7.0 mi East 8.1 mph - N/A   Clear
3:55 AM 89.1 °F 87.1 °F 55.0 °F 31% 29.89 in 10.0 mi ENE 11.5 mph - N/A   Clear
4:55 AM 89.1 °F 87.1 °F 55.0 °F 31% 29.89 in 10.0 mi ENE 16.1 mph - N/A   Clear
5:55 AM 88.0 °F 85.9 °F 54.0 °F 31% 29.91 in 10.0 mi ENE 23.0 mph 31.1 mph N/A   Partly Cloudy
6:55 AM 87.1 °F 84.9 °F 53.1 °F 31% 29.94 in 10.0 mi ENE 19.6 mph 26.5 mph N/A   Partly Cloudy
7:55 AM 88.0 °F - 52.0 °F 29% 29.95 in 10.0 mi ENE 20.7 mph 31.1 mph N/A   Partly Cloudy
8:55 AM 91.0 °F - 50.0 °F 24% 29.96 in 10.0 mi ENE 24.2 mph 36.8 mph N/A   Clear
9:55 AM 93.0 °F - 48.9 °F 22% 29.97 in 10.0 mi NE 24.2 mph 33.4 mph N/A   Clear
10:55 AM 95.0 °F - 46.9 °F 19% 29.97 in 10.0 mi ENE 23.0 mph 32.2 mph N/A   Clear
11:55 AM 98.1 °F - 46.0 °F 17% 29.96 in 10.0 mi ENE 19.6 mph 31.1 mph N/A   Clear
12:55 PM 99.0 °F - 45.0 °F 16% 29.95 in 10.0 mi East 17.3 mph 27.6 mph N/A   Clear
1:55 PM 100.0 °F - 39.9 °F 13% 29.93 in 10.0 mi NE 19.6 mph 25.3 mph N/A   Clear
2:55 PM 102.0 °F - 37.0 °F 11% 29.91 in 10.0 mi ENE 16.1 mph 23.0 mph N/A   Clear
3:55 PM 100.9 °F - 28.0 °F 8% 29.90 in 10.0 mi East 19.6 mph 28.8 mph N/A   Clear
4:55 PM 102.0 °F - 30.0 °F 8% 29.88 in 10.0 mi East 18.4 mph 24.2 mph N/A   Clear
5:55 PM 99.0 °F - 28.0 °F 8% 29.88 in 10.0 mi ENE 12.7 mph - N/A   Clear
6:55 PM 95.0 °F - 34.0 °F 12% 29.88 in 10.0 mi East 10.4 mph - N/A   Partly Cloudy
7:55 PM 93.9 °F - 37.9 °F 14% 29.90 in 10.0 mi East 6.9 mph - N/A   Clear
8:55 PM 91.0 °F - 41.0 °F 17% 29.92 in 10.0 mi East 3.5 mph - N/A   Clear
9:55 PM 90.0 °F - 44.1 °F 20% 29.94 in 10.0 mi ENE 4.6 mph - N/A   Clear
10:55 PM 90.0 °F - 43.0 °F 19% 29.94 in 10.0 mi ENE 5.8 mph - N/A   Clear
11:55 PM 84.0 °F - 46.9 °F 27% 29.95 in 10.0 mi Calm Calm - N/A   Clear